RADUGA 20 [-]

Last updated on June 23, 2019, 3:41 a.m. UTC

1 17611U 87028A   19173.65841072 -.00000138  00000-0  00000+0 0  9997
2 17611  16.5265 349.0071 0026593 102.4657 252.7784  0.95962580113810
UTC
Height (km)
Latitude
Longitude
Inclination
Orbital Period
UTC large
Height (km)
Speed (km/s)
/
Latitude / Longitude
Inclination (degrees)
Orbital Period (minutes)
Azimuth
Elevation
Range (km)
Doppler Factor
iOS Compass Heading
iOS Angle

Next 30 passes for location: Hong Kong

Rise time Rise Azimuth (degrees) Set time Set Azimuth (degrees) Duration Max altitude (degrees)

No matching passes for this satellites